Weather History for Alicante, Spain

Change the Weather History Date:

Saturday, January 19, 2013

  Actual Average Record
Temperature  
Mean Temperature 58 °F -  
Max Temperature 65 °F 60 °F 71 °F (1998)
Min Temperature 51 °F 43 °F 39 °F (2002)
Degree Days  
Heating Degree Days 7    
Growing Degree Days 8 (Base 50)    
Moisture  
Dew Point 48 °F    
Average Humidity 71    
Maximum Humidity 94    
Minimum Humidity 50    
Precipitation  
Precipitation 0.24 in - - ()
Sea Level Pressure  
Sea Level Pressure 29.26 in    
Wind  
Wind Speed 8 mph ()    
Max Wind Speed 24 mph    
Max Gust Speed 40 mph    
Visibility 6.5 miles    
Events Rain    
Averages and records for this station are not official NWS values.
T = Trace of Precipitation, MM = Missing Value Source: Averaged Metar Reports

Daily Weather History Graph

Daily Weather History Graph

Search for Another Location

Airport:

Trip Planner

Search our weather history database for the weather conditions in past years. The results will help you decide how hot, cold, wet, or windy it might be!

Date:

Astronomy

Jan. 19, 2013 Rise Set
Actual Time 8:16 AM CET 6:10 PM CET
Civil Twilight 7:47 AM CET 6:38 PM CET
Nautical Twilight 7:15 AM CET 7:11 PM CET
Astronomical Twilight 6:43 AM CET 7:42 PM CET
Moon 12:27 PM CET (1/19) 1:37 AM CET (1/19)
Length of Visible Light 10h 51m
Length of Day
9h 54m
First Quarter, 54% of the Moon is Illuminated
Jan 19
First Quarter
Jan 27
Full
Feb 3
Last Quarter
Feb 10
New
Feb 17
First Quarter

Hourly Weather History & Observations

Time (CET) Temp. Dew Point Humidity Pressure Visibility Wind Dir Wind Speed Gust Speed Precip Events Conditions
12:00 AM 59.0 °F 48.2 °F 67% 29.62 in 6.2 mi SSW 8.1 mph - N/A   Partly Cloudy
12:30 AM 60.8 °F 48.2 °F 63% 29.59 in 6.2 mi WSW 6.9 mph - N/A   Partly Cloudy
1:00 AM 59 °F 45 °F 50% 29.57 in 16 mi WSW 6.9 mph - -   Overcast
1:00 AM 59.0 °F 48.2 °F 67% 29.56 in 6.2 mi WSW 6.9 mph - N/A   Partly Cloudy
1:30 AM 59.0 °F 48.2 °F 67% 29.53 in 6.2 mi WSW 6.9 mph - N/A   Partly Cloudy
2:00 AM 59.0 °F 48.2 °F 67% 29.53 in 6.2 mi West 6.9 mph - N/A   Partly Cloudy
2:30 AM 60.8 °F 48.2 °F 63% 29.50 in 6.2 mi West 5.8 mph - N/A   Partly Cloudy
3:00 AM 59.0 °F 48.2 °F 67% 29.50 in 6.2 mi WSW 3.5 mph - N/A   Partly Cloudy
3:30 AM 59.0 °F 48.2 °F 67% 29.47 in 6.2 mi SW 4.6 mph - N/A   Partly Cloudy
4:00 AM 59.0 °F 48.2 °F 67% 29.47 in 6.2 mi SW 8.1 mph - N/A   Partly Cloudy
4:30 AM 59.0 °F 48.2 °F 67% 29.44 in 6.2 mi SSW 9.2 mph - N/A   Partly Cloudy
5:00 AM 57.2 °F 48.2 °F 72% 29.42 in 6.2 mi SW 3.5 mph - N/A   Partly Cloudy
5:30 AM 59.0 °F 50.0 °F 72% 29.42 in 6.2 mi SSW 8.1 mph - N/A   Partly Cloudy
6:00 AM 57.2 °F 50.0 °F 77% 29.39 in 6.2 mi Variable 1.2 mph - N/A   Partly Cloudy
6:30 AM 55.4 °F 48.2 °F 77% 29.39 in 6.2 mi Variable 1.2 mph - N/A   Partly Cloudy
7:00 AM 57.2 °F 50.0 °F 77% 29.36 in 6.2 mi SW 5.8 mph - N/A   Partly Cloudy
7:30 AM 57.2 °F 50.0 °F 77% 29.36 in 6.2 mi SSW 3.5 mph - N/A   Partly Cloudy
8:00 AM 57.2 °F 51.8 °F 82% 29.33 in 6.2 mi South 3.5 mph - N/A   Partly Cloudy
8:30 AM 55.4 °F 51.8 °F 88% 29.30 in 6.2 mi SSW 4.6 mph - N/A   Partly Cloudy
9:00 AM 57.2 °F 51.8 °F 82% 29.27 in 6.2 mi SSW 3.5 mph - N/A   Partly Cloudy
9:30 AM 57.2 °F 51.8 °F 82% 29.27 in 6.2 mi SW 3.5 mph - N/A   Partly Cloudy
10:00 AM 60.8 °F 51.8 °F 72% 29.24 in 6.2 mi WSW 6.9 mph - N/A   Partly Cloudy
10:30 AM 64.4 °F 51.8 °F 64% 29.24 in 6.2 mi SSW 17.3 mph 28.8 mph N/A   Partly Cloudy
11:00 AM 64.4 °F 51.8 °F 64% 29.21 in 6.2 mi SSW 17.3 mph - N/A   Partly Cloudy
11:30 AM 66.2 °F 51.8 °F 60% 29.21 in 6.2 mi SSW 23.0 mph 36.8 mph N/A   Partly Cloudy
12:00 PM 64.4 °F 53.6 °F 68% 29.18 in 6.2 mi SSW 24.2 mph 40.3 mph N/A   Partly Cloudy
12:30 PM 62.6 °F 53.6 °F 72% 29.15 in 6.2 mi SSW 19.6 mph 36.8 mph N/A   Scattered Clouds
1:00 PM 61 °F 52 °F 63% 29.15 in 9 mi SSW 20.7 mph - - Rain Light Drizzle
1:00 PM 62.6 °F 55.4 °F 77% 29.15 in 6.2 mi SSW 19.6 mph 35.7 mph N/A Rain Light Rain
1:30 PM 51.8 °F 50.0 °F 94% 29.15 in 3.1 mi WNW 20.7 mph 39.1 mph N/A Rain Heavy Rain
2:00 PM 53.6 °F 46.4 °F 77% 29.12 in 4.3 mi West 12.7 mph 24.2 mph N/A Rain Rain
2:30 PM 55.4 °F 48.2 °F 77% 29.12 in 4.3 mi SSW 5.8 mph - N/A Rain Rain
3:00 PM 55.4 °F 50.0 °F 82% 29.09 in - SSW 6.9 mph - N/A   Clear
3:30 PM 55.4 °F 50.0 °F 82% 29.09 in - WSW 5.8 mph - N/A   Clear
4:00 PM 55.4 °F 50.0 °F 82% 29.09 in - SSW 8.1 mph - N/A   Clear
4:30 PM 57.2 °F 48.2 °F 72% 29.09 in - SSW 11.5 mph - N/A   Clear
5:00 PM 57.2 °F 46.4 °F 67% 29.09 in - SSW 9.2 mph - N/A   Clear
5:30 PM 57.2 °F 46.4 °F 67% 29.09 in - SSW 6.9 mph - N/A   Clear
6:00 PM 55.4 °F 46.4 °F 72% 29.09 in - SW 4.6 mph - N/A   Clear
6:30 PM 55.4 °F 42.8 °F 63% 29.12 in - SSW 9.2 mph - N/A   Clear
7:00 PM 55 °F 42 °F 52% 29.13 in 12 mi SSW 11.5 mph - -   Mostly Cloudy
7:00 PM 55.4 °F 44.6 °F 67% 29.12 in - SSW 10.4 mph - N/A   Clear
7:30 PM 53.6 °F 46.4 °F 77% 29.12 in - SSW 9.2 mph - N/A   Clear
8:00 PM 53.6 °F 46.4 °F 77% 29.09 in - SSW 11.5 mph - N/A   Clear
8:30 PM 53.6 °F 44.6 °F 72% 29.09 in - SW 9.2 mph - N/A   Clear
9:00 PM 53.6 °F 44.6 °F 72% 29.09 in - SW 6.9 mph - N/A   Clear
9:30 PM 53.6 °F 44.6 °F 72% 29.12 in 6.2 mi WSW 3.5 mph - N/A   Mostly Cloudy
10:00 PM 53.6 °F 42.8 °F 67% 29.09 in 6.2 mi WSW 10.4 mph - N/A   Mostly Cloudy
10:30 PM 53.6 °F 41.0 °F 62% 29.12 in 6.2 mi WSW 16.1 mph - N/A   Mostly Cloudy
11:00 PM 53.6 °F 41.0 °F 62% 29.15 in 6.2 mi West 15.0 mph - N/A   Mostly Cloudy
11:30 PM 53.6 °F 41.0 °F 62% 29.15 in 6.2 mi WSW 16.1 mph - N/A   Mostly Cloudy